Participated 1 time
in 1974
Gianni Di Lorenzo, Italy
Tour de France 2026 starts from Edinburgh, Scotland in

Stats and Facts from
Tour de France.

2026   2025   2024   2023  2022  2021  2020  2019   2018  2017   2016   2015  2014  2013   2012   2011  2010   2009   2008   2007   2006   2005   2004   2003   2002   2001   2000   1999   1998   1997  1996   1995   1994   1993   1992  1991   1990   1989   1988   1987   1986   1985   1984   1983  1982  1981   1980   1979  1978  1977   1976  1975  1974  1973   1972   1971   1970  1969   1968   1967   1966   1965  1964  1963   1962   1961   1960   1959   1958   1957  1956   1955   1954   1953   1952  1951  1950  1949   1948  1947  1939   1938   1937   1936   1935   1934   1933  1932   1931   1930  1929   1928   1927   1926  1925  1924  1923   1922   1921   1920   1919  1914   1913   1912   1911   1910  1909   1908   1907   1906  1905  1904   1903 

Tourstats
Sitemap

After stage 21 - 2026:
 16451 starters.
  5513 different riders.
  689 teams.
  2419 stages.
  470 restdays.
  469752.50 km.
  5946 abandoned riders.

Click map for 1995 route.
Facts from Tour de France 1995
  |   Stages.  |   Stage winners.  |   Days in jerseys.  |   Teams.  |   All riders.  |   All riders by age.  |   All riders from.  |  

  |   Rookies.  |   Withdrawls.  |   Average speed.  |   GC.  |   Polka  |   Green  |   White  |   Summits. (In tour)  |   Miscellaneous.  |  

Stage 8 on July 9th. 1995
Pick a stage:  Pro  1  2  3  4  5  6  7  8  9  10  11  12  13  14  15  17  18  19  20  

After stage 8:    Miguel Indurain  
  HuySeraing | Dist: 54.00km. | Winner: Miguel Indurain

Podium
4  Côte de Pont-de-Bonne Miguel Indurainafter13.00 km.


Average speed for all riders in stage:  44,192 km./hr.

1
 Miguel Indurain  Banesto01h 04' 16"=50,415  km/h

2
 Bjarne Riis  Gewiss-Ballan01h 04' 28"+  00:00:12 =50,259  km/h

3
 Tony Rominger  Mapei-GP01h 05' 14"+  00:00:58 =49,668  km/h

4  Evgueni Berzin  Gewiss-Ballan01h 05' 54"+  00:01:38 =49,165  km/h

5  Melchor Mauri  O.N.C.E.01h 06' 32"+  00:02:16 =48,697  km/h

6  Laurent Jalabert  O.N.C.E.01h 06' 52"+  00:02:36 =48,455  km/h

7  Johan Bruyneel  O.N.C.E.01h 07' 17"+  00:03:01 =48,155  km/h

8  Bruno Thibout  Castorama01h 07' 49"+  00:03:33 =47,776  km/h

9  Erik Breukink  O.N.C.E.01h 08' 04"+  00:03:48 =47,600  km/h

10  Alex Zülle  O.N.C.E.01h 08' 12"+  00:03:56 =47,507  km/h

11  Ivan Gotti  Gewiss-Ballan01h 08' 20"+  00:04:04 =47,415  km/h

12  Vicente Aparicio  Banesto01h 08' 33"+  00:04:17 =47,265  km/h

13  Zenon Jaskuła  Aki-Gipiemme01h 08' 41"+  00:04:25 =47,173  km/h

14  Mariano Rojas  O.N.C.E.01h 08' 50"+  00:04:34 =47,070  km/h

15  Alberto Elli  MG Maglificio-Technogym01h 09' 09"+  00:04:53 =46,855  km/h

16  Armand De Las Cuevas  Castorama01h 09' 14"+  00:04:58 =46,798  km/h

17  Yvon Ledanois  Gan01h 09' 15"+  00:04:59 =46,787  km/h

18  Claudio Chiappucci  Carrera Jeans-Tassoni01h 09' 22"+  00:05:06 =46,708  km/h

19  Lance Armstrong  Motorola01h 09' 25"+  00:05:09 =46,675  km/h

20  Thierry Marie  Castorama01h 09' 30"+  00:05:14 =46,619  km/h

21  Francis Moreau  Gan01h 09' 51"+  00:05:35 =46,385  km/h

22  Pavel Tonkov  Lampre-Panaria01h 09' 56"+  00:05:40 =46,330  km/h

23  Jean-Cyril Robin  Festina01h 10' 17"+  00:06:01 =46,099  km/h

24  Jean-François Bernard  Chazal-MBK-Konig01h 10' 23"+  00:06:07 =46,034  km/h

25  Bo Hamburger  TVM-Polis Direct01h 10' 34"+  00:06:18 =45,914  km/h

26  Laurent Brochard  Festina01h 10' 35"+  00:06:19 =45,903  km/h

27  Massimiliano Lelli  Mercatone Uno-Saeco01h 10' 39"+  00:06:23 =45,860  km/h

28  Gianni Bugno  MG Maglificio-Technogym01h 10' 46"+  00:06:30 =45,784  km/h

29  Massimo Donati  Mercatone Uno-Saeco01h 10' 47"+  00:06:31 =45,773  km/h

30  Francisco Mauleón  Mapei-GP01h 10' 55"+  00:06:39 =45,687  km/h

31  Viatcheslav Ekimov  Novell01h 10' 59"+  00:06:43 =45,645  km/h

32  Jesper Skibby  TVM-Polis Direct01h 11' 01"+  00:06:45 =45,623  km/h

33  Fernando Escartin  Mapei-GP01h 11' 05"+  00:06:49 =45,580  km/h

34  Olaf Ludwig  Telecom-ZG-Selle Italia01h 11' 08"+  00:06:52 =45,548  km/h

35  Massimo Podenzana  Brescialat01h 11' 09"+  00:06:53 =45,538  km/h

36  Pascal Lance  Gan01h 11' 13"+  00:06:57 =45,495  km/h

37  Richard Virenque  Festina01h 11' 16"+  00:07:00 =45,463  km/h

38  Gabriele Colombo  Gewiss-Ballan01h 11' 16"+  00:07:00 =45,463  km/h

39  Arsenio González  Mapei-GP01h 11' 17"+  00:07:01 =45,452  km/h

40  Laurent Dufaux  Festina01h 11' 19"+  00:07:03 =45,431  km/h

41  Didier Rous  Gan01h 11' 22"+  00:07:06 =45,399  km/h

42  Fabian Jeker  Festina01h 11' 24"+  00:07:08 =45,378  km/h

43  Djamolidine Abduzhaparov  Novell01h 11' 26"+  00:07:10 =45,357  km/h

44  Steve Bauer  Motorola01h 11' 27"+  00:07:11 =45,346  km/h

45  Gérard Rué  Banesto01h 11' 33"+  00:07:17 =45,283  km/h

46  Álvaro Mejía  Motorola01h 11' 35"+  00:07:19 =45,262  km/h

47  Gianluca Bortolami  Mapei-GP01h 11' 35"+  00:07:19 =45,262  km/h

48  Rolf Aldag  Telecom-ZG-Selle Italia01h 11' 36"+  00:07:20 =45,251  km/h

49  Guido Bontempi  Gewiss-Ballan01h 11' 37"+  00:07:21 =45,241  km/h

50  Andrea Tafi  Mapei-GP01h 11' 45"+  00:07:29 =45,157  km/h

51  Bruno Cenghialta  Gewiss-Ballan01h 11' 46"+  00:07:30 =45,146  km/h

52  Andrea Peron  Motorola01h 11' 46"+  00:07:30 =45,146  km/h

53  Laurent Madouas  Castorama01h 11' 55"+  00:07:39 =45,052  km/h

54  Thierry Laurent  Castorama01h 12' 07"+  00:07:51 =44,927  km/h

55  Marco Pantani  Carrera Jeans-Tassoni01h 12' 07"+  00:07:51 =44,927  km/h

56  Maximilian Sciandri  MG Maglificio-Technogym01h 12' 09"+  00:07:53 =44,906  km/h

57  Eddy Bouwmans  Novell01h 12' 09"+  00:07:53 =44,906  km/h

58  Vladimir Pulnikov  Telecom-ZG-Selle Italia01h 12' 19"+  00:08:03 =44,803  km/h

59  Beat Zberg  Carrera Jeans-Tassoni01h 12' 23"+  00:08:07 =44,762  km/h

60  Neil Stephens  O.N.C.E.01h 12' 25"+  00:08:09 =44,741  km/h

61  Emmanuel Magnien  Castorama01h 12' 25"+  00:08:09 =44,741  km/h

62  Mario Cipollini  Mercatone Uno-Saeco01h 12' 31"+  00:08:15 =44,679  km/h

63  José Ramon Uriarte  Banesto01h 12' 32"+  00:08:16 =44,669  km/h

64  Bruno Boscardin  Festina01h 12' 35"+  00:08:19 =44,638  km/h

65  Dirk Baldinger  Polti01h 12' 37"+  00:08:21 =44,618  km/h

66  Leonardo Sierra  Carrera Jeans-Tassoni01h 12' 41"+  00:08:25 =44,577  km/h

67  Gianluca Gorini  Aki-Gipiemme01h 12' 41"+  00:08:25 =44,577  km/h

68  Johan Museeuw  Mapei-GP01h 12' 42"+  00:08:26 =44,567  km/h

69  Dario Bottaro  Gewiss-Ballan01h 12' 42"+  00:08:26 =44,567  km/h

70  Flavio Vanzella  MG Maglificio-Technogym01h 12' 57"+  00:08:41 =44,414  km/h

71  Silvio Martinello  Mercatone Uno-Saeco01h 12' 59"+  00:08:43 =44,394  km/h

72  Georg Totschnig  Polti01h 13' 01"+  00:08:45 =44,373  km/h

73  Jens Heppner  Telecom-ZG-Selle Italia01h 13' 05"+  00:08:49 =44,333  km/h

74  Jacky Durand  Castorama01h 13' 06"+  00:08:50 =44,323  km/h

75  Enrico Zaina  Carrera Jeans-Tassoni01h 13' 10"+  00:08:54 =44,282  km/h

76  Artūras Kasputis  Chazal-MBK-Konig01h 13' 12"+  00:08:56 =44,262  km/h

77  Thomas Davy  Banesto01h 13' 18"+  00:09:02 =44,202  km/h

78  Denis Zanette  Aki-Gipiemme01h 13' 25"+  00:09:09 =44,132  km/h

79  Alexander Gontchenkov  Lampre-Panaria01h 13' 34"+  00:09:18 =44,042  km/h

80  Nicola Loda  MG Maglificio-Technogym01h 13' 36"+  00:09:20 =44,022  km/h

81  Herminio Diaz Zabala  O.N.C.E.01h 13' 37"+  00:09:21 =44,012  km/h

82  Alessio Galletti  Lampre-Panaria01h 13' 38"+  00:09:22 =44,002  km/h

83  Arvis Piziks  Novell01h 13' 39"+  00:09:23 =43,992  km/h

84  Eros Poli  Mercatone Uno-Saeco01h 13' 39"+  00:09:23 =43,992  km/h

85  Maurizio Fondriest  Lampre-Panaria01h 13' 40"+  00:09:24 =43,982  km/h

86  François Simon  Castorama01h 13' 41"+  00:09:25 =43,972  km/h

87  Ángel Camargo  Kelme-Avianca01h 13' 45"+  00:09:29 =43,932  km/h

88  Marino Alonso  Banesto01h 13' 47"+  00:09:31 =43,912  km/h

89  Hernán Buenahora  Kelme-Avianca01h 13' 50"+  00:09:34 =43,883  km/h

90  Gilles Bouvard  Chazal-MBK-Konig01h 13' 53"+  00:09:37 =43,853  km/h

91  Rolf Järmann  MG Maglificio-Technogym01h 13' 57"+  00:09:41 =43,813  km/h

92  Marco Serpellini  Lampre-Panaria01h 14' 06"+  00:09:50 =43,725  km/h

93  Andrea Ferrigato  Telecom-ZG-Selle Italia01h 14' 07"+  00:09:51 =43,715  km/h

94  Rossano Brasi  Polti01h 14' 09"+  00:09:53 =43,695  km/h

95  Paolo Lanfranchi  Brescialat01h 14' 09"+  00:09:53 =43,695  km/h

96  Mauro Bettin  Aki-Gipiemme01h 14' 10"+  00:09:54 =43,685  km/h

97  Oscar Pelliccioli  Polti01h 14' 11"+  00:09:55 =43,676  km/h

98  Mario Scirea  Polti01h 14' 15"+  00:09:59 =43,636  km/h

99  Carmelo Miranda  Banesto01h 14' 17"+  00:10:01 =43,617  km/h

100  Alberto Volpi  Gewiss-Ballan01h 14' 18"+  00:10:02 =43,607  km/h

101  Christophe Capelle  Gan01h 14' 19"+  00:10:03 =43,597  km/h

102  Aitor Garmendia  Banesto01h 14' 19"+  00:10:03 =43,597  km/h

103  Jelle Nijdam  TVM-Polis Direct01h 14' 29"+  00:10:13 =43,500  km/h

104  Ramon Gonzalez  Banesto01h 14' 31"+  00:10:15 =43,480  km/h

105  Miguel Arroyo  Chazal-MBK-Konig01h 14' 31"+  00:10:15 =43,480  km/h

106  Stephen Hodge  Festina01h 14' 32"+  00:10:16 =43,470  km/h

107  Herman Frison  Lotto-Isoglass01h 14' 34"+  00:10:18 =43,451  km/h

108  Udo Bölts  Telecom-ZG-Selle Italia01h 14' 35"+  00:10:19 =43,441  km/h

109  Serguei Utchakov  Polti01h 14' 37"+  00:10:21 =43,422  km/h

110  Marco Milesi  Brescialat01h 14' 39"+  00:10:23 =43,403  km/h

111  Maarten Den Bakker  TVM-Polis Direct01h 14' 39"+  00:10:23 =43,403  km/h

112  Dimitri Konychev  Aki-Gipiemme01h 14' 41"+  00:10:25 =43,383  km/h

113  Marc Wauters  Novell01h 14' 44"+  00:10:28 =43,354  km/h

114  Erik Zabel  Telecom-ZG-Selle Italia01h 14' 48"+  00:10:32 =43,316  km/h

115  Éric Boyer  Polti01h 14' 51"+  00:10:35 =43,287  km/h

116  Andrei Tchmil  Lotto-Isoglass01h 14' 51"+  00:10:35 =43,287  km/h

117  Angelo Lecchi  Brescialat01h 14' 53"+  00:10:37 =43,267  km/h

118  Wilfried Peeters  Mapei-GP01h 14' 54"+  00:10:38 =43,258  km/h

119  Eric Vanderaerden  Brescialat01h 15' 04"+  00:10:48 =43,162  km/h

120  Frans Maassen  Novell01h 15' 05"+  00:10:49 =43,152  km/h

121  Julio César Aguirre  Kelme-Avianca01h 15' 07"+  00:10:51 =43,133  km/h

122  Federico Muñoz  Kelme-Avianca01h 15' 10"+  00:10:54 =43,104  km/h

123  Leon van Bon  Novell01h 15' 11"+  00:10:55 =43,095  km/h

124  Giovanni Fidanza  Polti01h 15' 17"+  00:11:01 =43,037  km/h

125  Bart Voskamp  TVM-Polis Direct01h 15' 19"+  00:11:03 =43,018  km/h

126  Roberto Petito  Mercatone Uno-Saeco01h 15' 19"+  00:11:03 =43,018  km/h

127  Gilles Talmant  Castorama01h 15' 20"+  00:11:04 =43,009  km/h

128  Laudelino Cubino  Kelme-Avianca01h 15' 26"+  00:11:10 =42,952  km/h

129  Frankie Andreu  Motorola01h 15' 31"+  00:11:15 =42,904  km/h

130  Gian Matteo Fagnini  Mercatone Uno-Saeco01h 15' 36"+  00:11:20 =42,857  km/h

131  Antonio Politano  Mercatone Uno-Saeco01h 15' 39"+  00:11:23 =42,829  km/h

132  Carlo Bomans  Mapei-GP01h 15' 41"+  00:11:25 =42,810  km/h

133  Giovanni Lombardi  Polti01h 15' 43"+  00:11:27 =42,791  km/h

134  Héctor Castaño  Kelme-Avianca01h 15' 45"+  00:11:29 =42,772  km/h

135  Jean-Pierre Bourgeot  Chazal-MBK-Konig01h 15' 48"+  00:11:32 =42,744  km/h

136  Mario Chiesa  Carrera Jeans-Tassoni01h 15' 51"+  00:11:35 =42,716  km/h

137  Davide Cassani  MG Maglificio-Technogym01h 15' 54"+  00:11:38 =42,688  km/h

138  Davide Perona  Lampre-Panaria01h 16' 01"+  00:11:45 =42,622  km/h

139  Francesco Frattini  Gewiss-Ballan01h 16' 06"+  00:11:50 =42,576  km/h

140  Sean Yates  Motorola01h 16' 06"+  00:11:50 =42,576  km/h

141  Giancarlo Perini  Brescialat01h 16' 12"+  00:11:56 =42,520  km/h

142  Fabio Casartelli  Motorola01h 16' 12"+  00:11:56 =42,520  km/h

143  Ján Svorada  Lampre-Panaria01h 16' 16"+  00:12:00 =42,483  km/h

144  Franco Vona  MG Maglificio-Technogym01h 16' 22"+  00:12:06 =42,427  km/h

145  Mauro Radaelli  Brescialat01h 16' 25"+  00:12:09 =42,399  km/h

146  Frédéric Moncassin  Novell01h 16' 29"+  00:12:13 =42,362  km/h

147  Marcello Siboni  Carrera Jeans-Tassoni01h 16' 29"+  00:12:13 =42,362  km/h

148  Ángel Edo  Kelme-Avianca01h 16' 32"+  00:12:16 =42,334  km/h

149  Bruno Cornillet  Chazal-MBK-Konig01h 16' 37"+  00:12:21 =42,288  km/h

150  François Lemarchand  Gan01h 16' 39"+  00:12:23 =42,270  km/h

151  Rudy Verdonck  Lotto-Isoglass01h 16' 41"+  00:12:25 =42,252  km/h

152  Gilberto Simoni  Aki-Gipiemme01h 16' 43"+  00:12:27 =42,233  km/h

153  José Angel Vidal  Kelme-Avianca01h 16' 52"+  00:12:36 =42,151  km/h

154  Alessandro Bertolini  Carrera Jeans-Tassoni01h 16' 57"+  00:12:41 =42,105  km/h

155  Jim Van De Laer  TVM-Polis Direct01h 16' 58"+  00:12:42 =42,096  km/h

156  Stephen Swart  Motorola01h 17' 03"+  00:12:47 =42,051  km/h

157  Christophe Mengin  Chazal-MBK-Konig01h 17' 29"+  00:13:13 =41,815  km/h

158  Sergio Barbero  Carrera Jeans-Tassoni01h 17' 30"+  00:13:14 =41,806  km/h

159  Wladimir Belli  Lampre-Panaria01h 17' 30"+  00:13:14 =41,806  km/h

160  Stefano Colagè  Telecom-ZG-Selle Italia01h 17' 33"+  00:13:17 =41,779  km/h

161  Sammie Moreels  Lotto-Isoglass01h 17' 43"+  00:13:27 =41,690  km/h

162  Peter Farazijn  Lotto-Isoglass01h 18' 00"+  00:13:44 =41,538  km/h

163  Thierry Gouvenou  Gan01h 18' 06"+  00:13:50 =41,485  km/h

164  Gilles Delion  Chazal-MBK-Konig01h 18' 09"+  00:13:53 =41,459  km/h

165  Erik Dekker  Novell01h 18' 09"+  00:13:53 =41,459  km/h

166  Dante Rezze  Aki-Gipiemme01h 18' 14"+  00:13:58 =41,415  km/h

167  Mario De Clercq  Lotto-Isoglass01h 18' 26"+  00:14:10 =41,309  km/h

168  Tristan Hoffman  TVM-Polis Direct01h 18' 26"+  00:14:10 =41,309  km/h

169  Peter De Clercq  Lotto-Isoglass01h 18' 56"+  00:14:40 =41,047  km/h


Withdrawls: 1
 RiderTeamReason
104   Francisco Cabello Kelme-AviancaDid not start
Todays birthdays.

1877 • Julien Girbe
1886 • Robert Chopard
1896 • Charles Loew
1906 • Gottlieb Wanzenried
1909 • Eugene Le Goff
1930 • François Mahé
1951 • Bernard Bourreau
1967 • Jesús Rosado
1971 • Tom Steels

 

Optimized for Chrome - Edge
and Opera browsers.